Flag for United Kingdom Weather past 2 weeks in Cambridge, England, United Kingdom

Now
63 °F

Scattered clouds.


Feels Like: 63 °F
Forecast: 50 / 64 °F
Wind: 26 mph from Southwest

Location: Cambridge Airport

Current Time: Jun 2, 2015 at 4:49:02 PM

Latest Report: Jun 2, 2015 at 4:20 PM


Visibility: N/A

Pressure: 29.62 "Hg

Humidity: 77%

Dew point: 55 °F

Location of CambridgeLocation

Historic Weather in Cambridge — Graph

°F

Cambridge temperature yesterday

Maximum temperature yesterday: 59 °F (at 1:20 PM)
Minimum temperature yesterday: 45 °F (at 6:50 AM)
Average temperature yesterday: 53 °F

Past Weeks' High & Low Weather Summary

 TemperatureHumidityPressure
High108 °F (May 24, 4:20 PM)94% (May 23, 7:50 AM)30.30 "Hg (May 23, 7:50 AM)
Low41 °F (May 20, 6:50 AM)36% (May 24, 12:50 PM)29.50 "Hg (Jun 2, 6:50 AM)
Average56 °F70%29.97 "Hg
* Reported May 18 3:20 PM — Jun 2 3:50 PM, Cambridge, Weather by CustomWeather, © 2015

Note: Actual official high and low records may vary slightly from our data, if they occured in-between our weather recording intervals... More about our weather records

Advertising

Cambridge weather history for previous 24 hours

 ConditionsComfort  
Time TempWeatherWind HumidityBarometerVisibility
3:50 PM
Tue, Jun 2
63 °FScattered clouds.28 mph83%29.62 "HgN/A
3:20 PM61 °FScattered clouds.20 mph88%29.59 "HgN/A
2:50 PM59 °FPassing clouds.17 mph94%29.59 "HgN/A
2:20 PM59 °FLight rain. Partly sunny.16 mph94%29.59 "Hg4 mi
1:50 PM59 °FRain. Scattered clouds.18 mph94%29.56 "Hg3 mi
1:20 PM59 °FDrizzle. Partly sunny.14 mph88%29.56 "Hg4 mi
12:20 PM61 °FDrizzle. Partly sunny.15 mph83%29.56 "Hg4 mi
11:50 AM63 °FLight rain. Partly sunny.18 mph83%29.56 "HgN/A
11:20 AM63 °FPartly sunny.18 mph83%29.53 "HgN/A
10:50 AM59 °FBroken clouds.16 mph88%29.53 "HgN/A
10:20 AM57 °FSprinkles. Partly sunny.20 mph94%29.53 "Hg5 mi
9:50 AM57 °FPartly sunny.20 mph94%29.53 "HgN/A
9:20 AM57 °FPartly sunny.17 mph94%29.50 "HgN/A
8:50 AM57 °FScattered showers. Partly sunny.16 mph88%29.50 "HgN/A
8:20 AM55 °FPartly sunny.13 mph94%29.50 "Hg6 mi
7:20 AM55 °FDrizzle. Partly sunny.14 mph94%29.50 "Hg4 mi
6:50 AM55 °FPartly sunny.14 mph94%29.50 "HgN/A
7:50 PM
Mon, Jun 1
54 °FPassing clouds.17 mph63%29.74 "HgN/A
7:20 PM52 °FPassing clouds.16 mph72%29.77 "HgN/A
6:50 PM52 °FPassing clouds.14 mph72%29.77 "HgN/A
6:20 PM52 °FLight rain. Partly sunny.16 mph72%29.80 "HgN/A
5:50 PM52 °FLight rain. Passing clouds.13 mph72%29.80 "HgN/A
5:20 PM55 °FRain. Passing clouds.17 mph59%29.83 "HgN/A
4:50 PM55 °FPassing clouds.15 mph55%29.83 "HgN/A
4:20 PM55 °FPassing clouds.18 mph55%29.86 "HgN/A
Weather by CustomWeather, © 2015

See weather overviewHow to use our weather pages